Regional Weather Roundup
Issued by NWS

Home | Current Version | Previous Version | Graphics & Text | Print | Product List | Glossary On
Versions: 1 2 3 4 5 6 7 8 9 10 11 12 13 14 15 16 17 18 19 20 21 22 23 24 25 26 27 28 29 30 31 32 33 34 35 36 37 38 39 40 41 42 43 44 45 46 47 48 49 50
000
ASUS43 KDMX 240101
RWRIA

WEATHER ROUNDUP FOR IOWA
NATIONAL WEATHER SERVICE DES MOINES IA
800 PM CDT MON OCT 23 2017

NOTE: "FAIR" INDICATES FEW OR NO CLOUDS BELOW 12,000 FEET WITH NO
SIGNIFICANT WEATHER AND/OR OBSTRUCTIONS TO VISIBILITY.

* - THESE STATIONS ARE NOT NWS STATIONS...THUS NOT UNDER NWS
QUALITY CONTROL.  THEY ALSO DO NOT REPORT WEATHER SUCH
AS PRECIPITATION OR FOG.

IAZ001>003-012>014-020>022-031>034-043>046-240200-
   NORTHWEST IOWA

CITY           SKY/WX    TMP DP  RH WIND       PRES   REMARKS
CARROLL *      CLOUDY    48  32  53 NW12G20   29.98S
CHEROKEE *     PTCLDY    48  29  48 NW10G17   30.00S
DENISON *      PTCLDY    48  32  53 W9        30.03S
LE MARS *      CLOUDY    52  32  46 NW21G26   30.03S
ORANGE CITY *  PTCLDY    50  36  57 NW13      30.02R
SHELDON *      PTCLDY    48  30  49 NW10G17   29.99S
SIOUX CITY     CLOUDY    52  33  48 NW14      30.05S
SPENCER        PTCLDY    49  29  46 NW16G24   29.97S
STORM LAKE *   MOCLDY    48  30  49 NW10      29.98S
$$

IAZ055>058-069>071-079>083-090>094-240200-
   SOUTHWEST IOWA

CITY           SKY/WX    TMP DP  RH WIND       PRES   REMARKS
ATLANTIC *     PTCLDY    50  32  50 NW10      30.02S
AUDUBON *      CLEAR     46  36  66 W5        30.01F
CLARINDA *       N/A     54  32  43 N16G22    30.07R
COUNCIL BLFS * PTCLDY    52  30  43 NW13      30.06S
CRESTON *      CLOUDY    50  36  57 NW17G28   30.01R
HARLAN  *      PTCLDY    46  34  61 NW10      30.06S
LAMONI         CLOUDY    53  36  52 NW22G36   29.97R
RED OAK *      PTCLDY    50  32  50 NW7       30.06R
SHENANDOAH *   MOCLDY    52  32  46 NW9       30.08R
$$

IAZ047>049-059>061-072>074-084-240200-
   CENTRAL IOWA

CITY           SKY/WX    TMP DP  RH WIND       PRES   REMARKS
AMES           CLOUDY    50  37  61 NW17G25   29.92F
ANKENY *       CLOUDY    50  36  57 NW14G23   29.94F
BOONE *        CLOUDY    50  34  53 NW13G23   29.92F
CHARITON *     CLOUDY    52  37  58 NW30G43   29.93R
DES MOINES     CLOUDY    50  33  52 NW14G28   29.94R
GRINNELL*      CLOUDY    49  39  66 NW25G36   29.89R
KNOXVILLE *    CLOUDY    52  37  58 NW22G30   29.91R
MARSHALLTOWN   LGT RAIN  49  36  61 NW22G30   29.87F
NEWTON *       CLOUDY    50  36  57 NW20G33   29.91R
PELLA *        CLOUDY    51  39  63 NW21G30   29.92R
PERRY *        CLOUDY    50  32  49 W10G18    29.96S
$$

IAZ004>006-015-016-023>025-035-036-240200-
   NORTH CENTRAL IOWA

CITY           SKY/WX    TMP DP  RH WIND       PRES   REMARKS
ALGONA *       CLOUDY    50  32  50 NW13G18   29.92F
CLARION *      CLOUDY    48  37  66 NW14      29.90S
ESTHERVILLE    CLOUDY    48  30  49 NW14G21   29.94R
FORT DODGE *   CLOUDY    49  33  54 W10       29.94S
MASON CITY     CLOUDY    49  31  49 NW23G35   29.87F
FOREST CITY *  CLOUDY    50  34  53 NW14G23   29.88S
WEBSTER CITY * CLOUDY    50  34  53 NW15G21   29.90S
IOWA FALLS *   CLOUDY    49  37  61 NW14G24   29.89F
$$

IAZ007>011-017>019-026>030-037>042-050>054-066-240200-
   NORTHEAST IOWA

CITY           SKY/WX    TMP DP  RH WIND       PRES   REMARKS
CEDAR RAPIDS   CLOUDY    51  40  65 NW30G37   29.80R
CHARLES CITY * CLOUDY    48  34  57 NW18G29   29.83S
CLINTON *      CLOUDY    51  48  89 W13       29.74
DECORAH *      CLOUDY    48  41  76 NW9G17    29.76S
DUBUQUE        CLOUDY    50  40  68 NW13      29.74S
MONTICELLO *   MOCLDY    52  39  62 NW21G31   29.76R
OELWEIN *        N/A    N/A N/A N/A NW18G24   29.80F
WATERLOO       CLOUDY    48  38  68 NW20G31   29.82F
$$

IAZ064-065-067-068-078-240200-
   EAST CENTRAL IOWA

CITY           SKY/WX    TMP DP  RH WIND       PRES   REMARKS
DAVENPORT      CLOUDY    52  45  77 W12       29.77S
IOWA CITY      CLEAR     53  38  56 NW20G30   29.82R
MUSCATINE *    MOCLDY    55  37  50 NW23G31   29.79R
QUAD CITIES    CLOUDY    54  45  71 W14       29.75S
$$

IAZ062-063-075>077-085>089-095>099-240200-
   SOUTHEAST IOWA

CITY           SKY/WX    TMP DP  RH WIND       PRES   REMARKS
BURLINGTON     CLOUDY    57  41  55 NW16G24   29.80R
FAIRFIELD *    CLEAR     52  36  54 NW14G25   29.84R
FORT MADISON * CLOUDY    55  43  62 NW17G23   29.82R
KEOKUK *       MOCLDY    57  39  51 NW21G32   29.82R
OSKALOOSA *    CLOUDY    51  40  66 NW20G33   29.88R
OTTUMWA        CLOUDY    53  38  56 NW23G35   29.87R
WASHINGTON *   CLEAR     52  39  62 NW22G29   29.83R
$$

ABBREVIATIONS USED IN REMARKS
   TC - TEMPERATURES IN CELSIUS
  WCI - WIND CHILL INDEX
   HX - HEAT INDEX
  VSB - VISIBILITY
$$





USA.gov is the U.S. government's official web portal to all federal, state and local government web resources and services.